Location: Unspecified
(58.9933°N, 5.6375°E)
Time: 10:58:52
(UTC+01:00)

CZ-3 Stage 3 - Visible Passes

Search period start: 11 December 2016 00:00
Search period end: 21 December 2016 00:00
Orbit: 470 x 34733 km, 30.6° (Epoch: 08 December)

Date Brightness Start Highest point End Pass type
(mag) Time Alt. Az. Time Alt. Az. Time Alt. Az.
11 Dec 9.2 00:59:38 10° ESE 07:17:52 50° SE 09:10:45 10° ESE visible
12 Dec 10.3 00:29:29 10° ENE 03:40:09 23° E 05:10:37 10° ENE visible
12 Dec 9.4 07:52:27 10° WSW 10:30:46 24° WSW 16:01:26 10° WSW visible
13 Dec 8.7 03:47:46 10° S 09:09:09 48° SW 12:40:39 10° SSE visible
14 Dec 9.1 00:47:16 10° SE 07:06:24 50° SE 09:01:58 10° ESE visible
15 Dec 10.4 00:15:02 10° ENE 03:29:25 24° E 05:01:37 10° ENE visible
15 Dec 9.3 07:42:01 10° WSW 10:20:22 24° WSW 15:51:44 10° WSW visible
16 Dec 8.7 03:37:53 10° S 08:50:51 48° SW 12:31:49 10° SSE visible
17 Dec 9.1 00:35:04 10° SE 06:54:53 50° SE 08:53:10 10° ESE visible
18 Dec 10.4 00:00:39 10° ENE 03:18:40 24° E 04:52:36 10° E visible
18 Dec 9.3 07:31:40 10° WSW 10:09:57 25° W 15:41:58 10° WSW visible
19 Dec 8.7 03:28:04 10° S 08:33:49 49° SW 12:22:59 10° SSE visible
20 Dec 9.0 00:23:02 10° SE 06:43:18 51° SE 08:44:22 10° ESE visible
